Regional Weather Roundup
Issued by NWS

Home | Current Version | Previous Version | Graphics & Text | Print | Product List | Glossary On
Versions: 1 2 3 4 5 6 7 8 9 10 11 12 13 14 15 16 17 18 19 20 21 22 23 24 25 26 27 28 29 30 31 32 33 34 35 36 37 38 39 40 41 42 43 44 45 46 47 48 49 50
000
ASUS43 KTOP 300908
RWRKS

WEATHER ROUNDUP FOR KANSAS
NATIONAL WEATHER SERVICE GOODLAND KS
400 AM CDT TUE SEP 30 2014

NOTE:  "FAIR" INDICATES FEW OR NO CLOUDS BELOW 12,000 FEET WITH NO
SIGNIFICANT WEATHER AND/OR OBSTRUCTIONS TO VISIBILITY.

KSZ001>006-013>018-027>032-041>047-301000-
NORTHWEST KANSAS

CITY           SKY/WX    TMP DP  RH WIND       PRES   REMARKS
GOODLAND       CLEAR     50  46  86 W7        29.87F
HAYS           CLOUDY    68  54  60 S18       29.85F
HILL CITY      CLOUDY    65  57  75 S12       29.82F
RUSSELL        CLOUDY    68  56  65 S17G26    29.85S
$$

KSZ061>065-074>080-084>089-301000-
SOUTHWEST KANSAS

CITY           SKY/WX    TMP DP  RH WIND       PRES   REMARKS
DODGE CITY     LGT RAIN  66  54  65 S17G24    29.87F
ELKHART          N/A     61  55  81 S7          N/A
GARDEN CITY    CLOUDY    62  60  93 S5        29.86F
GREAT BEND     CLOUDY    70  54  56 S16       29.88R
LIBERAL        CLOUDY    64  55  72 S8        29.90S
PRATT          CLOUDY    66  54  63 S10       29.90S
$$

KSZ066>073-081>083-090>101-301000-
SOUTHEAST KANSAS

CITY           SKY/WX    TMP DP  RH WIND       PRES   REMARKS
CHANUTE        CLEAR     62  59  90 E7        29.94F
COFFEYVILLE    CLEAR     60  58  92 E5        29.93F
HUTCHINSON     PTCLDY    66  56  70 S10       29.90F
MEDICINE LODGE   N/A     66  56  70 S8        29.90R
NEWTON         PTCLDY    63  54  72 S9        29.93F
PARSONS        CLEAR     60  59  96 E3        29.94F
WICHITA INTL   MOCLDY    65  57  75 S9        29.90F
WICHITA JABRA  PTCLDY    65  57  75 S8        29.91F
WICHITA MCCONL PTCLDY    65  59  81 SE9       29.91F
WINFIELD       PTCLDY    65  58  78 SE9       29.93F
$$

KSZ007>012-019>026-033>040-048>060-102>105-301000-
NORTHEAST KANSAS

CITY           SKY/WX    TMP DP  RH WIND       PRES   REMARKS
CONCORDIA      MOCLDY    67  59  75 S16G24    29.87F
EMPORIA        CLEAR     62  59  90 SE7       29.92F
LAWRENCE       PTCLDY    58  56  93 E3        29.93F FOG
MANHATTAN      PTCLDY    67  59  75 W5        29.89F
MARYSVILLE     MOCLDY    63  59  88 SE6       29.89F
OLATHE IND     PTCLDY    64  59  83 SE7       29.94F
OLATHE EXE     PTCLDY    63  58  83 SE5       29.94F
SALINA         PTCLDY    67  58  72 S10       29.88F
TOPEKA BILLARD CLEAR     63  60  90 NE5       29.92F
TOPEKA FORBES  CLEAR     60  57  89 SE6       29.92F
$$


USA.gov is the U.S. government's official web portal to all federal, state and local government web resources and services.